Theta_e
323 326 327 327 330 330 330 328 327 329 328 323 323 326 330 333 333 334 336 337 338 338 336 335 334 334 336 336 337 339 339 339 339 338 338 337 336 336 337 337 337 337 337 337 336 336 336 335 334 334 332 330 329 327 323 318 318 323 325 325 324 324 324 323 323 324 324 323 324 324 324 324 324 324 324 324 324 324 324 324 324 324 324 324 325 325 325 325 325 326 326 326 325 324 324 324 324
329 330 327 327 330 327 328 326 325 325 324 321 323 327 331 335 335 336 337 338 338 336 335 334 332 334 336 336 335 338 339 337 337 338 336 335 335 335 337 337 337 337 338 338 336 336 336 334 333 331 329 326 325 325 322 321 323 325 325 324 324 323 323 323 323 323 323 323 323 324 323 324 324 324 324 325 324 325 325 325 324 323 323 324 325 326 328 328 328 328 328 327 325 324 324 324 324
331 328 327 328 328 325 326 326 324 321 321 320 323 331 333 336 337 337 337 337 337 334 334 333 333 336 337 338 337 337 338 335 336 335 334 335 336 335 336 337 337 337 337 337 336 335 334 332 330 328 325 325 325 326 325 325 326 325 324 324 323 323 323 323 322 322 323 323 324 324 324 325 326 326 326 326 325 325 325 325 325 324 325 326 327 328 330 329 329 329 327 326 325 324 324 324 324
328 327 328 327 326 325 327 328 326 321 321 320 323 333 335 336 338 338 337 336 335 334 335 335 335 336 337 339 337 336 337 334 334 334 335 335 334 334 336 336 336 337 336 336 336 334 332 329 328 325 326 328 328 327 326 327 326 324 324 323 323 323 323 323 323 323 323 323 324 324 325 326 327 327 326 327 327 327 327 326 325 325 326 327 328 329 329 329 328 328 326 325 324 323 324 324 324
327 326 325 325 325 326 328 328 327 323 322 322 325 334 337 335 339 338 336 334 334 336 336 337 337 335 336 337 336 337 336 333 334 335 335 334 334 335 336 336 336 336 335 335 334 332 329 327 327 327 328 329 328 327 326 326 325 325 325 324 324 323 323 323 323 323 324 324 324 325 325 326 326 327 327 327 328 328 327 327 326 327 328 328 329 329 329 328 327 326 326 325 324 322 323 323 323
325 325 324 325 324 326 327 325 324 324 328 330 330 336 336 336 340 338 336 336 335 336 336 337 338 337 336 336 335 335 334 334 335 334 335 334 334 335 335 336 335 335 335 335 334 331 328 327 327 328 328 327 327 327 326 325 325 325 325 326 325 323 323 323 324 325 326 324 325 325 326 326 327 328 328 327 328 328 327 327 327 328 328 328 328 328 328 327 326 325 325 324 322 321 321 322 322
324 324 324 325 326 327 326 324 323 326 334 336 334 337 337 337 339 338 338 338 336 336 336 336 336 337 337 336 335 333 333 334 335 334 335 335 335 334 335 336 335 335 335 335 333 330 327 326 327 327 327 326 326 325 325 325 324 324 326 327 325 323 323 323 325 327 326 325 326 326 325 326 326 329 329 328 329 329 328 328 328 328 327 327 327 326 326 325 324 323 323 322 322 321 320 321 321
323 323 323 325 327 328 327 326 327 331 335 336 335 337 339 339 338 338 339 338 338 337 337 336 336 338 337 336 335 333 333 334 335 336 335 335 335 334 335 335 335 335 334 334 332 330 327 325 325 326 325 325 325 324 325 324 324 325 326 327 325 323 323 323 324 326 326 326 327 326 326 326 326 328 329 328 329 328 328 328 328 327 327 326 325 325 324 324 323 322 322 322 322 322 321 322 320
322 323 322 325 327 327 327 328 330 334 337 336 337 338 339 339 338 338 338 337 338 337 338 336 335 337 337 336 335 333 334 335 335 336 336 335 335 335 335 335 335 335 335 334 332 331 328 325 325 325 325 325 325 325 325 324 325 326 326 326 324 322 323 323 323 325 326 326 326 326 326 326 325 327 327 327 327 326 326 326 326 325 325 324 324 324 323 323 322 321 321 321 322 321 322 323 321
323 323 324 326 327 325 325 327 331 336 337 337 337 339 339 338 338 338 338 338 337 337 338 335 335 337 336 336 335 333 334 335 335 336 334 333 334 334 335 335 334 334 334 332 331 330 328 325 325 325 325 325 326 326 326 326 326 327 327 325 323 323 323 322 322 324 325 325 325 325 325 325 325 325 325 325 324 325 325 325 324 323 323 323 323 323 321 321 322 321 321 322 321 321 322 322 321
323 324 325 327 325 323 323 325 331 336 337 337 338 338 338 337 337 337 338 338 337 338 337 335 336 336 336 336 335 334 335 335 335 333 330 330 331 332 333 334 333 332 331 331 330 329 327 324 323 324 325 324 325 325 325 326 327 327 326 323 323 323 323 323 322 324 325 324 324 324 324 324 324 323 323 323 323 324 323 323 323 321 321 322 322 322 320 321 322 321 321 322 321 321 322 321 320
324 326 327 326 325 324 326 327 332 337 337 337 338 338 337 337 337 338 338 338 337 337 336 336 336 336 337 337 334 334 335 334 333 330 328 329 330 331 332 332 332 331 330 330 329 328 327 324 322 324 325 323 322 322 322 324 327 327 324 322 323 323 323 324 323 323 324 324 324 323 323 322 322 322 321 321 322 323 321 322 322 321 320 321 321 321 320 320 322 321 321 321 321 321 321 319 319
324 327 328 327 328 329 330 330 333 336 336 338 338 337 337 337 338 338 338 337 337 337 335 334 334 334 336 336 334 333 334 333 332 330 328 328 330 331 331 331 331 331 330 329 328 328 327 324 324 324 323 322 322 322 322 326 327 325 323 322 323 323 323 323 324 323 323 323 323 322 321 320 319 318 317 319 322 322 320 321 321 320 319 320 321 321 320 320 321 321 321 321 321 321 319 316 317
324 327 328 329 331 332 332 331 333 334 335 338 338 336 336 337 337 336 337 336 336 335 334 333 332 333 335 334 333 331 332 334 334 331 328 329 330 331 331 331 330 330 329 328 327 327 326 324 324 324 323 323 323 323 324 325 324 323 323 322 322 322 322 323 323 323 323 322 321 319 319 318 316 315 315 319 322 321 320 320 321 320 319 320 320 321 320 320 321 321 321 321 321 319 316 315 315
324 327 330 331 331 332 332 332 333 332 334 338 337 336 336 336 335 335 336 335 334 333 333 333 333 334 334 334 333 331 333 334 333 331 330 330 331 331 331 330 329 328 327 327 326 325 323 323 323 323 324 324 323 323 323 323 323 323 323 322 323 321 320 321 323 323 322 321 319 317 317 317 316 315 316 319 320 321 320 319 320 320 320 319 320 320 319 319 320 320 319 318 317 316 315 315 315
326 328 331 331 330 330 331 333 333 333 335 337 337 336 336 335 334 335 335 333 334 333 333 333 333 334 333 333 333 332 333 333 332 331 330 330 330 330 329 328 327 327 326 325 324 323 322 322 322 323 324 323 323 322 322 323 323 323 323 322 322 319 316 318 320 321 321 319 317 316 317 319 318 317 317 318 319 320 319 319 319 320 320 319 318 317 316 315 315 315 315 314 314 314 314 314 315
327 330 332 330 329 329 331 334 334 334 336 337 337 336 336 336 335 334 333 332 333 333 333 333 332 332 332 333 333 333 333 333 333 331 330 329 329 328 328 327 327 326 326 324 323 323 322 322 323 323 323 323 323 322 322 322 321 322 322 322 321 318 316 316 318 319 319 318 317 318 319 319 319 318 317 317 318 319 319 318 318 318 318 317 314 313 312 312 312 312 312 312 312 312 313 316 317
329 332 332 330 331 332 333 334 333 334 336 337 337 336 337 337 335 334 333 333 333 333 333 332 331 331 330 330 331 333 334 333 332 331 330 329 327 328 328 328 327 327 326 325 324 323 323 324 323 323 323 323 323 322 321 322 321 321 321 321 321 320 319 319 319 320 320 319 319 319 319 319 318 318 316 316 317 318 317 316 316 314 314 313 312 313 312 312 312 313 312 312 312 313 315 318 318
331 333 332 331 334 333 333 332 332 334 335 336 337 337 337 336 335 334 334 334 333 333 333 332 331 330 328 327 328 330 332 333 332 331 330 329 328 328 328 328 327 326 325 324 325 323 322 324 323 323 323 323 323 322 321 322 322 321 321 321 321 321 320 320 320 320 320 319 319 319 319 318 318 317 316 315 316 317 316 315 315 314 313 313 313 315 315 313 314 315 314 314 315 315 316 316 316
332 333 334 333 334 333 332 332 333 334 334 334 336 336 336 334 334 334 334 334 332 333 332 332 332 331 328 325 324 326 328 330 331 331 329 329 329 329 328 328 327 326 325 323 324 323 322 324 324 323 324 323 323 322 321 322 322 321 321 322 321 321 321 320 320 320 320 319 319 319 318 318 318 318 317 316 317 318 318 317 316 316 316 315 315 317 317 315 316 317 316 316 316 316 316 316 316
332 333 335 333 332 333 332 331 332 333 333 334 335 335 335 333 333 334 334 332 331 332 332 332 332 330 327 323 323 323 323 326 328 329 330 329 329 329 328 328 327 326 324 322 323 323 322 324 324 323 324 323 323 322 322 322 322 322 322 322 322 321 320 319 319 320 319 319 319 318 318 318 318 318 317 317 317 318 318 318 317 317 317 316 316 317 316 316 316 316 316 316 316 316 316 316 317
334 333 333 332 332 333 332 332 333 333 333 334 334 335 334 332 332 332 332 330 330 331 330 331 330 327 324 322 324 325 324 324 324 325 326 328 328 328 327 327 326 325 323 322 322 323 322 323 324 323 322 323 323 322 323 322 322 322 322 322 321 321 320 319 319 319 319 319 319 318 318 319 318 318 317 317 317 317 317 317 317 317 317 317 316 316 315 315 315 315 315 315 315 316 316 316 317
335 333 332 332 331 332 332 332 333 333 333 333 333 332 331 331 330 329 328 327 330 330 329 329 328 324 322 324 326 327 326 326 326 324 323 326 327 327 327 326 325 324 323 322 322 322 322 324 323 323 322 322 322 322 323 323 322 322 322 321 321 320 320 319 318 318 319 319 319 318 318 318 318 317 317 317 317 317 317 317 317 316 316 316 316 315 315 315 315 315 314 314 315 315 315 315 315
335 333 333 332 332 332 332 332 332 332 332 331 331 330 330 329 328 327 325 325 328 329 329 329 326 323 324 326 327 327 327 327 326 325 324 324 324 325 325 325 324 323 322 321 322 322 323 324 324 323 322 322 322 323 323 323 322 322 321 321 321 320 320 319 318 318 319 319 319 318 318 318 318 317 317 317 317 317 317 316 316 316 316 315 316 316 315 315 315 315 315 314 314 314 314 315 314
334 334 333 332 332 332 332 332 332 332 331 329 329 329 330 328 326 327 324 324 327 328 328 328 325 324 326 327 328 328 327 328 326 325 324 323 322 322 321 322 322 321 321 321 322 322 323 324 324 324 323 323 323 323 323 322 322 322 322 321 321 320 320 318 318 319 319 318 318 318 317 318 318 317 317 317 317 317 317 316 316 316 316 315 316 316 316 315 315 315 315 314 314 314 314 314 315
332 333 333 332 333 332 332 332 332 331 330 330 329 329 329 327 327 328 325 325 326 327 327 326 325 325 327 328 328 329 327 328 327 325 325 323 322 321 320 320 321 320 321 322 322 322 323 324 324 324 324 323 323 323 323 322 322 322 322 321 321 320 319 319 318 318 318 318 318 317 317 317 317 317 317 316 316 317 316 316 316 316 316 315 316 316 316 315 315 315 315 314 315 314 314 314 314
332 332 332 332 332 332 332 331 332 331 330 331 330 331 331 329 330 329 325 326 327 327 327 327 327 327 328 328 329 330 330 329 328 327 326 324 324 323 321 320 320 321 321 322 323 323 323 324 324 324 324 324 323 323 323 323 323 322 322 322 321 320 319 319 319 318 318 318 318 317 316 316 316 316 316 316 316 316 316 316 316 316 316 316 315 315 315 315 315 315 314 314 314 314 314 314 314
332 331 332 332 332 332 332 331 332 331 331 332 331 332 331 330 331 329 326 327 328 328 328 329 330 328 329 330 329 330 331 331 329 328 327 326 325 324 322 321 320 320 321 322 323 322 323 324 324 324 323 323 323 323 322 322 322 322 321 322 320 319 319 318 318 318 318 318 317 316 316 316 315 315 316 316 316 316 316 316 316 316 316 315 315 315 315 315 315 315 314 314 314 313 314 314 314
331 331 332 332 332 332 331 331 331 331 331 332 333 332 331 331 330 329 327 326 328 329 329 330 331 330 329 330 330 330 331 332 330 329 329 328 326 325 323 321 320 320 321 322 323 322 323 324 324 323 322 322 322 321 321 321 322 322 321 321 320 318 318 318 318 318 318 318 317 316 316 315 315 315 315 315 315 315 315 315 315 316 315 315 314 314 315 315 315 315 315 315 314 314 314 314 313
332 333 333 333 333 332 332 331 331 332 331 331 334 328 326 330 330 329 328 326 328 329 329 329 330 331 330 331 330 330 332 333 332 331 330 329 327 326 324 322 321 320 321 322 322 323 323 324 324 323 322 323 323 320 320 321 321 322 321 321 320 319 318 318 318 318 318 317 316 316 316 315 315 315 315 315 315 315 315 315 315 315 315 314 314 314 314 314 314 314 314 314 314 314 314 314 314
334 334 332 332 329 327 332 332 331 334 330 332 335 325 323 330 330 330 329 326 328 328 329 329 329 331 331 331 331 330 332 333 334 333 332 331 328 326 325 324 322 321 321 322 322 323 323 323 323 323 323 323 322 321 321 322 322 321 321 320 320 319 318 318 319 318 318 317 316 316 316 316 315 315 315 315 315 315 315 315 314 314 314 314 314 314 314 314 313 314 313 313 313 314 314 314 314
334 330 326 327 324 326 333 332 331 334 331 332 334 325 324 330 330 330 329 327 328 327 329 330 330 332 331 331 331 330 331 333 334 333 333 332 329 326 325 324 323 321 322 322 323 322 323 324 324 323 323 323 322 322 322 322 321 320 320 320 320 319 319 319 319 318 318 317 316 316 316 316 316 315 316 315 315 315 314 314 314 314 314 314 314 314 314 314 313 313 313 313 313 313 313 313 313
332 329 322 322 322 324 330 331 331 333 332 333 333 329 327 330 331 330 329 328 328 328 328 330 331 332 332 332 332 331 331 332 333 333 334 333 330 326 325 324 323 322 322 323 322 322 323 324 324 324 323 322 322 322 322 321 321 320 320 319 319 319 319 319 318 318 318 317 316 316 316 316 316 316 316 315 315 315 315 314 314 314 314 314 314 314 314 315 314 314 313 313 313 313 313 313 313
326 327 322 322 324 324 325 330 332 332 333 334 333 332 330 329 330 330 330 330 329 329 330 330 330 331 331 331 331 332 331 332 332 333 334 333 330 327 325 324 323 323 323 322 322 322 324 324 324 324 323 323 322 321 321 321 321 320 320 320 320 319 319 319 318 318 318 317 316 316 316 317 316 316 316 315 315 315 315 315 315 315 315 314 315 315 314 315 315 315 314 313 313 313 312 313 312
324 323 321 321 324 324 324 327 330 331 333 334 333 333 330 329 331 331 331 331 330 330 330 330 330 330 331 331 331 332 331 332 332 334 335 333 330 327 325 324 324 324 323 322 321 322 324 324 324 324 323 323 323 322 322 321 321 321 320 320 320 319 318 318 318 318 318 317 317 316 317 317 316 316 316 316 316 315 315 315 315 315 315 315 315 315 315 315 316 315 314 314 313 313 313 313 312
328 326 323 320 321 323 325 328 329 331 333 332 332 331 329 329 329 330 331 331 331 331 331 331 331 330 331 331 331 332 332 332 333 335 335 333 330 326 325 325 325 325 324 323 322 322 324 323 323 323 323 323 322 323 322 322 322 321 321 320 320 320 319 318 318 318 318 318 317 316 316 316 316 316 316 316 316 316 316 316 316 316 316 315 315 316 315 314 315 315 315 315 313 313 313 312 312
331 329 325 322 320 320 326 329 328 331 331 329 330 330 329 329 328 329 330 331 333 332 332 332 331 331 330 330 331 331 332 333 334 335 335 333 329 327 326 325 325 325 325 324 323 323 323 323 323 322 322 321 321 323 324 323 323 322 322 321 321 321 320 319 319 318 318 318 317 316 316 316 316 316 316 316 316 316 316 316 316 316 316 316 316 316 315 314 315 315 315 315 314 314 313 313 312
332 329 326 323 321 321 326 329 327 331 330 326 327 328 328 329 328 328 329 331 332 331 332 332 331 331 331 331 331 331 333 334 334 335 335 333 329 327 327 326 325 326 326 325 324 324 324 324 324 323 322 321 321 322 322 323 323 323 323 322 322 321 320 320 319 319 318 318 317 316 316 316 316 317 316 316 316 316 316 316 316 316 316 317 316 316 315 314 314 315 314 314 314 314 312 313 312
331 329 326 322 322 323 326 328 329 331 329 326 327 328 327 328 328 328 329 329 331 330 330 331 331 331 331 331 332 332 333 335 335 335 334 332 329 327 328 327 326 326 326 326 325 325 324 324 324 324 323 322 322 320 320 321 323 323 323 322 322 321 320 320 319 319 318 317 317 317 317 317 316 316 316 316 315 316 316 316 316 315 316 316 316 316 315 314 313 314 314 313 314 314 312 313 312
331 329 325 321 323 326 323 325 330 330 329 329 329 328 327 328 327 327 329 328 329 330 329 330 330 331 332 331 332 333 333 335 336 336 334 333 330 328 328 328 326 326 327 327 326 325 324 324 324 324 323 322 321 320 320 322 323 323 322 322 321 320 320 319 318 318 318 317 318 317 317 317 316 316 316 315 315 316 316 316 316 315 316 316 316 315 315 314 313 313 313 314 314 314 313 313 312
329 330 327 323 325 327 324 327 330 330 331 329 330 330 326 326 328 326 328 329 329 330 329 330 330 330 332 332 332 333 333 335 337 337 336 334 332 330 329 329 328 327 327 327 327 325 324 323 324 324 323 321 320 321 322 322 323 323 323 322 321 320 320 319 319 319 319 318 318 317 317 316 316 316 316 316 316 316 316 316 316 315 315 316 316 315 314 313 313 312 313 313 314 314 314 313 312
325 329 330 328 328 328 327 329 329 326 327 327 334 334 327 323 329 329 329 329 329 330 330 330 331 330 332 332 333 334 333 335 337 337 337 337 335 333 331 330 330 328 328 328 327 326 324 323 323 323 322 320 320 322 322 321 323 323 323 323 322 322 321 320 321 320 319 319 319 318 317 316 316 316 316 316 316 316 315 316 315 315 315 315 315 315 314 314 313 312 312 313 313 314 313 313 312
323 326 330 331 330 330 327 328 326 321 323 326 333 335 326 321 327 330 330 330 329 331 331 331 330 330 331 332 332 333 334 335 338 338 337 337 337 335 334 332 331 330 329 328 328 326 325 323 323 322 322 320 319 321 321 321 323 323 323 323 323 322 322 322 321 320 319 319 319 318 317 317 317 316 316 316 315 315 315 315 314 314 314 315 315 315 314 314 314 313 313 313 313 313 313 313 312
323 327 331 330 330 330 329 328 326 322 325 327 328 329 322 319 324 330 330 330 330 331 331 331 330 330 331 331 331 332 333 334 336 338 337 338 338 337 336 334 332 331 330 329 328 327 325 324 323 322 322 320 320 320 320 321 321 323 323 323 323 322 322 322 321 320 320 319 319 318 318 317 316 316 316 316 316 316 315 315 314 314 314 314 314 314 314 314 314 313 313 313 313 313 313 312 312
327 329 331 330 329 330 330 328 325 325 325 322 323 326 322 318 322 329 331 329 330 331 331 330 329 330 330 331 331 330 331 332 333 336 337 339 339 337 337 335 333 332 331 329 328 327 326 325 324 324 322 321 320 319 319 320 321 322 323 322 323 322 322 321 320 320 320 320 319 318 318 317 316 316 316 316 316 315 316 315 315 314 314 314 314 314 314 314 314 313 312 313 313 313 313 312 312
330 330 330 330 330 330 331 329 325 324 324 319 320 323 321 318 320 325 328 327 329 331 330 330 330 329 329 330 330 330 330 331 331 333 336 338 339 338 337 337 335 333 331 330 329 327 327 326 325 325 323 322 322 319 319 320 321 321 322 322 322 322 321 321 320 320 320 320 320 319 318 317 317 317 317 317 316 316 316 315 315 315 315 315 315 315 314 314 314 313 312 314 313 313 312 312 312
330 330 330 329 330 330 330 328 325 322 321 319 319 322 322 319 319 322 327 327 329 331 330 330 330 329 330 331 330 330 330 330 330 331 335 338 339 338 338 337 336 334 332 330 329 329 327 327 326 326 324 323 322 320 319 320 321 321 321 321 321 321 320 320 320 320 320 319 320 319 319 318 317 317 317 317 316 316 316 316 315 316 315 315 315 314 314 313 313 313 312 313 313 312 312 312 311
329 331 329 324 324 326 324 323 323 322 319 319 321 324 323 318 318 323 328 329 329 330 330 330 330 329 330 331 329 329 330 330 330 330 334 338 340 339 339 338 338 335 333 331 330 329 327 327 327 327 325 324 323 321 319 319 320 320 320 320 320 320 320 319 319 320 319 319 319 319 319 319 318 317 317 317 316 316 316 316 316 315 315 314 314 313 313 313 313 312 312 312 312 312 311 311 311
330 328 324 320 318 320 320 318 319 319 318 321 323 325 322 318 320 326 329 328 329 329 329 330 330 330 331 330 329 330 330 330 330 332 336 339 339 340 339 339 339 337 335 332 331 330 328 328 328 327 326 325 323 322 320 319 320 320 320 320 320 320 320 319 319 319 318 318 318 319 319 318 318 317 317 316 316 316 316 315 315 314 314 314 313 312 311 312 313 312 312 312 311 311 311 311 311
329 325 320 318 318 318 318 318 318 318 319 321 324 325 321 317 321 328 329 328 330 330 329 330 331 332 332 330 329 330 330 330 332 334 337 338 339 340 340 339 339 338 336 334 332 330 329 329 329 328 327 326 324 322 320 319 320 320 320 320 320 320 320 320 319 318 318 318 318 319 318 317 317 317 317 316 316 315 315 314 314 314 313 313 312 311 310 312 313 313 313 312 311 311 311 311 310
329 329 324 319 317 317 318 318 317 317 318 320 324 324 318 315 322 328 329 329 329 329 329 330 331 332 332 330 330 331 333 334 334 335 335 337 339 341 340 340 339 339 337 335 333 331 330 330 329 328 328 326 324 322 320 319 319 319 320 320 320 320 320 320 319 318 318 318 318 318 317 317 317 316 316 316 315 315 314 314 313 313 313 312 310 309 310 313 314 313 313 313 312 311 311 311 310
329 330 325 320 320 320 318 319 321 320 318 318 320 320 318 321 326 328 329 328 328 328 328 329 330 330 330 331 331 332 334 334 334 334 335 337 341 341 340 341 340 339 338 336 334 332 332 331 330 329 328 327 324 323 321 320 319 319 320 319 320 320 320 319 319 319 318 318 318 317 317 317 317 316 316 316 315 315 314 313 313 313 312 311 309 310 311 313 313 313 313 313 312 311 311 310 310
327 324 321 323 326 323 318 320 324 323 318 316 316 317 319 323 326 327 328 328 328 328 328 328 329 330 331 331 331 331 331 333 333 334 336 338 341 341 341 341 340 339 338 337 335 333 333 332 331 330 328 327 325 324 323 321 320 319 319 319 319 320 320 319 319 319 318 318 317 317 317 317 317 317 316 315 315 314 314 313 312 313 312 310 309 310 311 312 313 313 313 313 313 312 311 311 310
325 321 323 326 327 326 322 319 320 318 315 315 315 315 315 316 320 326 329 328 329 328 327 328 329 330 331 331 331 330 331 334 334 335 336 338 340 341 340 340 339 339 338 337 336 335 334 333 331 330 329 328 326 324 324 322 320 319 319 319 319 319 319 319 319 318 318 318 317 317 318 317 317 317 316 315 314 314 314 313 312 312 312 309 308 310 311 312 312 313 313 313 312 311 311 311 310
325 323 327 325 320 320 320 317 316 315 314 314 314 314 313 313 317 324 327 328 330 328 328 328 328 329 329 330 331 331 334 336 336 335 336 338 340 340 340 339 338 339 338 336 336 334 334 333 332 331 330 329 327 325 324 323 321 319 318 318 319 318 318 318 318 318 318 317 317 317 318 318 317 317 316 316 315 314 313 313 313 312 311 309 308 309 311 311 312 312 312 312 312 311 311 310 309
327 326 328 325 321 319 318 318 316 314 313 314 314 314 313 315 321 326 327 329 330 329 329 329 328 329 329 329 330 330 334 337 335 334 334 336 339 339 340 340 338 338 337 335 335 334 333 333 332 331 330 329 327 325 324 324 322 320 318 317 318 318 318 318 318 318 317 317 317 316 317 317 317 317 316 315 315 314 313 313 312 311 311 309 308 309 310 310 312 312 312 311 311 309 309 308 307
324 322 322 322 322 321 320 319 316 314 313 313 314 313 313 319 325 328 327 328 329 328 329 329 328 329 329 329 331 330 332 335 335 334 333 336 339 339 340 340 337 336 336 334 333 333 332 332 332 331 331 330 328 326 325 324 323 321 319 318 318 318 318 318 318 318 317 317 317 316 316 317 317 316 316 315 314 314 313 312 312 311 310 309 307 308 309 310 311 312 311 310 309 308 307 307 306
324 322 320 321 321 319 318 317 316 315 314 313 314 313 314 321 326 327 327 328 328 327 328 328 328 329 329 331 335 335 336 338 339 338 335 337 340 339 339 338 336 336 335 333 333 332 331 331 331 330 331 330 329 327 326 325 324 323 321 319 319 319 318 318 318 319 318 317 317 317 317 317 316 316 316 315 314 313 312 312 312 311 310 309 307 306 308 310 311 311 311 309 307 307 307 307 305
Wind_Speed
7 6 5 5 5 6 6 5 4 3 3 3 1 1 3 3 2 2 2 2 2 1 3 4 4 3 4 5 4 5 2 2 3 1 1 4 5 6 6 6 6 6 7 7 6 8 7 6 9 10 11 10 9 7 6 8 9 10 10 10 9 9 9 8 9 9 8 8 8 7 7 8 7 7 7 7 7 8 8 8 8 8 7 7 7 8 9 9 10 10 9 10 10 11 12 12 12
7 6 5 6 6 7 3 2 5 2 3 3 1 3 3 1 2 3 5 4 3 3 3 3 3 2 3 4 4 3 2 4 6 4 4 6 9 8 7 6 6 6 7 7 7 8 6 8 12 12 11 8 7 7 7 9 11 10 9 8 8 8 8 7 7 8 8 7 7 7 7 7 7 7 6 6 6 6 6 7 7 7 7 7 7 8 9 10 10 10 9 9 9 11 12 12 12
7 5 6 6 7 6 3 3 5 3 3 3 2 4 2 2 3 4 4 4 4 3 2 2 1 2 2 3 2 2 2 4 6 6 5 4 6 6 7 6 6 6 7 6 7 8 8 12 12 10 8 7 8 8 8 10 10 10 9 8 8 7 7 7 6 6 6 6 5 6 6 6 6 6 6 6 6 6 5 6 6 7 7 7 8 9 9 9 10 9 8 8 9 10 11 12 11
6 4 5 6 6 5 4 4 3 4 3 3 2 3 2 4 4 3 3 3 4 2 1 1 1 3 3 2 1 1 2 3 3 2 3 3 5 7 7 6 5 6 7 6 8 9 10 12 10 8 9 9 9 8 8 9 9 9 9 9 8 7 6 6 5 5 4 4 4 3 4 6 8 7 7 6 5 5 5 5 6 7 7 8 9 9 8 9 9 9 9 9 10 10 11 12 11
4 4 5 6 5 1 3 3 2 4 3 5 3 3 3 4 3 2 3 3 4 2 1 0 1 2 2 2 2 1 3 3 1 2 5 6 6 7 6 6 6 7 7 5 8 11 11 10 9 9 11 9 9 8 8 8 7 8 8 8 8 6 6 5 5 5 3 3 4 3 3 6 9 9 9 7 6 6 5 5 6 7 8 7 7 7 8 9 10 10 10 11 11 11 12 11 11
4 4 5 7 3 2 4 3 3 2 4 6 3 4 3 3 2 3 3 2 4 3 1 1 1 2 2 3 4 4 4 1 2 3 5 8 5 5 6 8 7 7 7 6 8 11 10 10 10 10 10 9 9 8 8 7 7 6 7 7 7 6 5 5 5 7 5 3 4 4 4 6 9 9 9 9 8 6 4 4 5 6 7 7 8 8 9 9 10 11 11 12 12 11 11 10 10
4 4 4 6 3 2 5 3 3 3 4 5 4 4 3 3 2 3 3 1 2 3 1 1 2 3 3 3 4 6 4 2 3 3 5 8 6 7 8 8 9 8 8 8 9 10 9 10 9 9 9 9 9 7 7 7 7 6 6 6 6 6 5 5 6 7 6 5 4 4 5 6 8 10 10 9 10 10 7 6 6 8 8 8 8 8 9 10 11 12 12 11 11 10 10 10 10
4 4 2 4 3 2 5 3 3 3 3 2 4 4 3 3 2 2 1 0 1 2 2 2 2 1 5 4 4 5 3 3 5 6 8 9 7 9 10 8 9 8 7 7 9 10 9 9 8 8 8 7 7 6 6 6 6 5 6 5 5 6 5 4 5 6 6 5 5 4 6 7 7 9 11 10 10 11 10 9 9 9 8 8 8 8 9 10 11 12 11 10 9 9 10 10 10
4 3 2 3 4 2 5 3 1 4 4 3 4 3 3 2 2 1 1 2 2 2 3 2 1 1 7 8 5 3 4 5 6 8 8 9 8 8 9 8 8 9 8 7 9 9 8 8 8 7 6 5 5 4 4 4 4 5 5 4 5 6 5 5 5 5 5 5 5 5 6 7 6 8 10 10 10 10 9 9 9 9 9 9 9 8 9 10 10 10 9 9 9 10 11 10 10
3 2 3 3 4 4 5 1 2 3 4 4 4 4 3 3 2 1 1 4 3 2 3 2 2 5 8 8 5 3 5 7 6 7 7 8 8 8 9 8 9 9 8 7 6 6 6 6 6 5 5 3 3 2 2 2 3 4 4 4 4 5 5 5 5 5 5 5 6 6 6 6 6 7 8 9 10 9 9 9 9 9 9 9 9 9 9 9 9 8 8 9 9 10 10 10 10
4 3 3 4 5 4 3 3 3 3 5 3 4 5 4 4 4 3 3 5 3 4 5 3 4 8 8 6 5 5 6 7 7 8 7 7 8 9 9 9 8 8 7 6 4 3 3 4 4 4 3 2 2 1 1 1 2 3 4 4 4 5 5 4 4 5 5 5 6 6 6 6 6 7 8 9 9 8 8 9 9 9 9 9 8 8 8 8 8 7 8 9 8 9 9 9 10
4 2 3 5 5 4 4 4 3 3 4 4 5 5 4 4 4 4 4 5 5 6 5 2 4 6 6 6 4 6 8 8 8 9 8 7 8 9 9 8 8 7 6 5 3 2 2 2 3 3 2 2 3 2 2 2 3 3 4 4 4 5 5 4 4 4 4 5 5 6 6 6 6 7 7 8 8 8 8 8 9 9 9 8 8 8 8 7 7 7 8 8 8 8 8 8 9
4 2 4 4 4 4 4 3 2 1 3 4 5 5 4 4 4 4 5 6 5 6 5 3 4 3 4 6 6 8 9 9 9 9 8 7 7 8 8 7 7 7 5 4 2 2 1 1 2 2 2 1 2 3 5 4 4 4 4 4 4 5 4 4 4 4 4 4 5 6 6 6 5 7 8 7 8 8 8 8 8 9 8 7 7 8 7 7 7 7 8 8 7 7 8 8 9
4 3 5 4 3 4 4 2 0 2 3 6 6 6 5 3 4 3 3 6 5 5 6 3 2 2 5 6 5 6 8 10 9 9 8 6 7 7 7 7 7 5 4 3 2 1 1 1 1 2 2 1 2 4 5 5 4 3 3 4 5 5 4 4 4 4 5 5 5 4 5 6 7 8 7 7 8 8 8 7 7 7 7 7 7 7 7 7 7 7 7 7 7 8 9 10 10
3 2 4 5 3 2 1 2 1 2 4 8 6 7 5 4 4 3 2 4 6 6 4 3 0 1 3 4 4 7 9 11 9 8 8 7 7 7 7 6 5 4 3 3 2 1 0 1 1 1 2 2 3 4 4 5 4 4 4 4 5 5 4 4 4 5 5 5 4 4 5 6 7 8 7 7 7 8 7 7 6 6 7 7 6 7 7 6 6 6 7 8 8 9 10 10 11
3 3 4 4 2 1 1 1 1 1 4 8 7 6 6 5 4 2 1 1 6 5 2 3 1 2 2 3 6 9 9 10 9 9 8 8 7 6 6 5 5 5 3 3 2 2 1 1 1 1 2 3 4 4 4 5 5 5 5 4 4 6 6 4 4 4 5 4 4 4 6 6 6 7 7 7 7 7 7 6 5 5 6 6 6 7 7 7 7 8 8 9 9 10 10 9 9
3 3 4 4 1 2 3 2 1 2 6 8 8 7 7 7 4 2 2 2 6 6 3 4 3 3 4 6 7 8 8 8 9 9 8 7 6 6 7 5 5 5 4 3 2 2 2 2 2 2 4 4 4 3 4 4 4 4 4 4 4 7 7 4 4 4 4 3 3 5 5 6 6 7 7 6 6 6 6 5 5 4 6 6 7 8 9 9 9 9 9 10 10 10 9 7 7
4 3 3 3 2 4 5 4 4 3 8 9 8 7 4 6 6 4 5 5 6 6 5 5 5 5 6 6 5 6 7 7 9 9 8 7 6 6 6 5 4 3 3 3 3 3 2 3 2 3 4 4 3 3 3 3 3 3 3 3 4 5 5 4 3 3 2 2 3 4 5 6 6 7 8 7 5 5 6 5 5 5 6 7 7 9 11 11 10 11 12 11 11 11 10 7 7
3 3 3 2 5 5 5 4 5 3 8 9 8 6 3 5 7 5 5 5 6 5 6 5 6 6 6 6 4 5 6 7 9 9 8 7 6 5 5 4 3 2 2 2 3 3 2 2 2 3 3 3 3 3 3 2 2 2 3 3 3 4 4 4 3 2 2 2 3 4 5 6 5 6 7 8 5 4 5 6 6 6 6 7 7 7 9 11 11 11 14 13 11 12 10 8 9
1 3 2 4 5 6 5 4 4 4 8 10 8 6 4 5 5 4 4 5 4 3 5 5 6 6 6 6 4 4 5 6 8 9 8 8 6 5 4 3 3 2 1 1 2 3 2 2 2 3 3 3 2 2 2 2 2 1 2 2 3 3 4 4 3 2 2 3 4 4 5 5 5 5 6 7 5 4 5 5 6 6 5 7 8 7 7 10 12 9 12 13 10 10 10 10 10
0 2 3 6 4 5 6 4 5 6 8 8 8 6 6 5 3 3 3 3 4 3 4 2 5 7 6 6 5 4 4 4 6 7 7 7 6 5 4 3 2 1 1 0 1 3 2 1 2 3 3 2 2 1 2 2 1 1 2 2 2 3 4 4 3 3 3 4 4 5 5 5 4 5 6 6 6 5 5 5 6 6 5 7 9 8 8 10 11 9 10 12 10 10 10 10 10
2 4 5 5 3 6 7 5 7 6 7 7 7 6 6 6 4 3 1 1 3 4 4 3 5 7 6 6 6 5 5 4 4 5 6 6 5 5 4 3 2 1 1 0 2 2 2 2 2 3 3 2 1 1 1 1 1 1 1 1 2 3 3 3 3 3 4 4 5 5 4 4 4 5 6 6 6 6 7 7 6 7 7 7 9 9 9 10 10 10 11 11 11 11 11 11 11
1 5 5 5 5 8 7 7 7 6 7 7 6 6 6 6 5 3 1 4 6 5 4 5 7 7 7 7 6 5 4 4 4 4 4 5 5 6 4 4 3 2 1 1 1 2 1 2 3 3 3 2 1 0 0 1 1 1 2 1 2 3 3 3 3 4 4 4 5 5 5 5 5 5 5 6 7 7 7 7 7 7 7 8 9 9 9 10 10 10 11 11 11 11 12 11 11
3 7 7 7 8 9 8 7 7 6 7 7 6 7 5 4 5 3 1 5 5 5 5 6 7 8 7 6 5 4 4 4 4 3 3 3 4 4 4 4 3 2 0 1 1 1 1 2 3 3 3 2 2 1 1 1 1 1 1 1 2 3 3 3 3 3 3 4 5 6 6 5 5 5 6 6 7 7 7 8 8 8 8 8 8 9 10 10 10 10 11 12 11 11 12 11 12
6 8 8 8 9 9 9 7 7 6 6 6 6 6 4 3 4 4 4 5 5 5 6 6 7 7 7 6 5 4 4 3 4 4 3 2 3 3 3 4 3 2 1 1 1 1 2 3 3 3 3 2 2 2 2 1 1 1 1 1 2 2 3 3 3 3 3 4 5 6 7 6 6 6 6 6 7 7 7 8 8 8 8 9 9 9 10 10 10 10 11 12 12 12 12 11 12
7 8 9 9 9 9 8 7 7 6 5 5 6 6 5 4 3 5 6 5 6 6 7 7 7 8 7 6 5 5 4 4 4 4 4 3 3 4 3 3 4 3 3 2 1 1 3 4 3 3 3 2 2 2 2 1 1 1 1 1 2 2 2 2 2 3 4 5 6 7 7 7 7 7 7 7 7 7 7 7 8 8 8 9 10 9 10 11 11 11 12 13 13 13 13 12 12
9 10 10 10 10 8 7 8 7 6 5 4 5 6 6 5 4 3 7 7 7 7 8 8 8 8 7 6 5 5 4 4 4 4 4 4 4 4 4 3 3 4 4 4 3 2 3 4 4 3 2 2 3 3 2 2 2 2 2 1 1 2 2 1 2 3 4 5 6 7 8 8 8 8 8 7 7 7 7 8 8 9 9 10 11 11 11 11 12 12 13 14 13 14 13 12 13
11 11 11 10 9 8 6 7 6 5 5 3 3 5 6 5 3 3 10 9 8 8 8 8 8 7 7 6 5 5 4 5 4 4 5 5 3 3 4 3 4 4 4 5 3 2 4 4 4 2 2 2 3 3 2 3 2 2 2 1 2 2 1 1 2 3 4 5 6 7 7 8 8 8 9 8 7 8 8 8 9 9 10 11 12 12 12 12 12 12 13 13 13 14 14 12 13
10 9 10 10 8 8 6 7 6 4 5 4 2 3 6 6 3 7 10 10 9 9 8 9 8 6 6 6 5 4 4 5 5 5 5 4 3 2 3 3 4 4 4 4 3 3 4 4 3 2 1 2 2 2 3 3 3 3 2 1 2 2 1 1 2 3 4 4 6 7 7 8 8 8 9 9 8 8 8 9 9 10 11 12 12 13 14 13 13 13 14 13 13 14 14 13 14
8 6 6 8 7 7 6 5 6 4 4 5 2 2 6 7 6 8 10 11 10 10 9 9 8 6 6 5 5 4 4 5 5 5 5 5 4 3 4 4 4 4 3 4 4 4 4 4 3 3 2 2 1 2 3 3 4 3 2 1 1 1 1 2 2 2 3 3 5 6 7 7 8 8 8 8 8 8 9 9 10 10 12 13 12 13 14 14 14 15 15 15 14 14 14 14 15
6 5 4 5 3 6 7 6 6 5 4 5 4 0 5 7 8 8 9 11 11 10 9 9 8 7 6 5 5 4 4 5 5 6 5 6 5 4 4 5 6 5 3 4 4 3 4 4 4 4 3 2 1 2 2 3 4 3 2 1 1 1 0 1 2 2 2 3 4 6 7 8 8 8 8 8 9 8 9 9 10 11 12 13 13 14 14 14 15 15 16 16 16 16 14 15 15
4 4 4 3 3 6 7 6 6 4 4 6 4 0 5 7 7 9 9 11 11 10 9 9 8 8 6 5 5 4 4 5 6 7 7 7 7 6 5 5 6 6 5 4 4 4 4 5 5 4 4 2 2 2 2 3 4 2 1 1 1 1 1 0 1 2 3 3 4 5 6 7 8 8 8 8 8 8 9 9 10 12 12 13 13 13 14 15 16 16 17 17 17 17 16 15 16
4 3 3 4 4 6 7 7 7 4 4 6 5 2 3 6 6 8 9 10 12 10 9 9 8 8 7 6 5 4 4 4 6 6 7 8 8 7 6 6 6 6 6 5 5 5 5 6 5 5 4 3 2 2 2 3 3 3 1 1 1 1 1 1 1 2 3 3 4 5 5 6 7 8 8 9 8 8 9 9 10 11 12 13 13 14 14 14 16 17 18 17 17 17 17 16 17
4 3 3 4 3 5 6 6 7 6 4 5 5 3 2 6 7 8 9 10 11 10 8 9 8 7 7 6 5 5 4 4 4 4 6 8 8 8 7 6 6 6 6 5 5 5 6 6 5 4 4 3 3 2 3 3 3 3 2 2 1 1 2 1 1 1 2 3 4 4 5 5 7 8 8 9 9 9 9 9 10 11 12 13 13 14 14 15 16 17 18 17 17 17 17 17 18
3 3 4 5 4 3 5 6 7 8 7 4 5 3 2 6 7 7 9 10 10 10 8 8 8 7 7 6 5 5 4 4 2 2 6 8 9 9 8 7 8 7 6 6 5 5 5 5 4 4 3 4 4 3 4 4 5 4 3 2 2 2 1 1 1 1 1 2 4 4 4 5 6 7 8 9 9 9 9 9 10 11 12 13 14 14 15 16 16 16 18 17 17 16 16 16 18
2 2 3 4 4 4 5 6 6 7 6 5 4 3 3 6 7 7 8 9 9 9 8 6 7 7 6 6 5 5 4 3 2 3 6 9 10 10 9 8 8 7 6 6 5 6 5 5 4 4 3 4 4 4 4 5 5 5 4 3 2 2 1 1 1 1 1 2 3 4 4 5 6 6 7 8 9 9 10 10 10 11 13 13 14 14 15 15 16 17 17 17 18 17 15 16 18
1 2 3 3 4 5 6 6 6 5 5 4 4 3 4 5 7 8 7 8 9 8 8 7 7 7 6 6 6 5 5 3 3 5 7 9 10 11 10 9 9 8 7 7 6 6 6 5 4 4 4 4 4 4 4 4 4 5 4 4 3 2 2 1 1 1 2 2 3 4 4 5 5 6 7 8 9 9 10 10 10 11 12 13 13 14 15 15 15 16 17 17 17 17 16 16 19
1 3 3 4 3 6 5 4 6 5 4 4 5 4 5 6 6 8 8 8 9 9 9 8 8 7 6 6 6 5 4 3 4 5 8 10 11 12 11 9 9 8 8 8 7 7 6 6 5 5 4 4 4 4 4 4 4 4 4 3 3 2 2 2 2 1 1 2 3 4 4 4 5 5 6 8 8 9 10 10 11 11 12 12 12 13 14 14 14 15 16 17 16 16 16 16 19
3 3 4 4 3 5 6 4 5 5 4 3 5 4 5 7 7 8 9 9 8 8 8 8 8 8 7 7 6 5 5 5 6 6 8 10 11 12 11 9 9 8 8 8 7 7 7 7 6 5 4 3 3 4 4 5 4 4 4 3 2 2 2 2 3 2 2 3 3 3 4 4 5 5 6 7 7 9 10 11 11 11 11 12 12 13 14 14 15 15 16 16 16 16 15 15 18
4 3 3 3 5 4 3 5 6 6 4 1 3 5 4 7 7 8 9 9 8 8 8 8 7 7 7 6 5 6 6 6 6 7 8 9 11 12 11 10 9 8 8 8 8 7 7 7 6 5 4 3 3 3 4 4 4 4 4 4 3 4 3 3 3 3 3 3 3 3 4 4 5 5 6 7 7 9 10 10 11 11 11 11 12 13 13 14 15 15 15 15 15 16 15 15 17
4 4 2 3 5 3 1 5 7 6 6 5 4 5 4 6 7 8 8 8 8 8 9 9 8 7 7 5 5 6 6 6 6 7 8 9 11 12 11 10 10 9 8 8 8 7 6 6 6 5 4 3 3 3 3 3 4 4 4 4 4 4 4 3 3 3 3 3 3 3 4 4 5 6 6 7 8 9 9 10 11 11 10 10 11 12 12 13 14 15 15 14 14 14 14 15 15
4 5 4 1 2 3 2 6 7 5 6 5 1 0 2 5 7 7 8 8 10 10 10 11 10 9 8 7 7 6 6 6 6 7 8 9 10 11 11 11 11 10 9 8 8 7 5 5 6 5 3 2 3 3 2 2 3 4 4 4 4 4 3 3 3 3 3 3 3 3 4 5 5 6 6 7 7 8 9 10 10 10 10 10 11 11 12 13 13 14 14 14 14 13 13 14 15
2 4 3 4 3 4 5 6 6 3 2 3 4 2 1 4 5 4 5 8 9 10 11 11 10 10 9 8 8 7 7 6 6 6 7 8 10 11 11 12 11 10 9 9 8 7 6 6 6 5 3 2 3 3 3 3 3 3 4 4 4 4 4 4 3 3 4 4 3 4 5 5 5 6 6 7 7 8 8 9 10 9 9 10 10 11 11 12 13 13 13 13 13 12 12 13 14
2 5 3 6 6 6 6 5 4 1 2 2 4 3 2 3 5 4 4 7 8 9 10 10 10 9 9 9 8 7 7 7 6 7 7 8 10 11 12 12 11 10 9 9 9 8 7 7 6 5 4 3 3 3 3 3 3 3 3 4 5 5 5 4 3 3 3 4 4 5 5 5 5 5 6 7 7 7 7 8 9 8 9 10 10 10 11 11 12 13 13 12 12 11 11 12 13
4 5 3 4 5 5 5 5 3 0 3 4 4 3 3 3 5 4 5 6 6 6 7 8 8 9 10 10 9 8 8 7 7 7 8 9 10 11 11 11 11 10 10 10 9 8 8 7 7 6 5 4 3 3 3 3 3 3 3 3 4 4 4 4 4 4 3 4 4 5 5 5 5 5 5 6 7 7 7 7 8 8 9 10 10 10 10 10 11 12 12 11 11 11 10 11 12
4 6 4 3 4 4 5 5 2 3 4 1 5 2 3 2 4 4 4 3 3 4 4 5 5 6 8 9 9 9 8 8 7 7 8 9 10 10 10 10 10 11 10 10 10 9 9 8 8 7 6 5 4 3 3 3 3 3 3 3 3 4 3 3 4 4 3 4 4 4 3 4 4 5 5 6 6 6 6 6 7 8 9 9 9 9 9 10 10 11 11 10 10 10 10 10 11
5 7 6 5 5 4 4 4 3 4 3 2 4 1 3 1 2 2 2 1 1 3 4 5 5 6 7 8 9 9 9 8 8 8 8 10 10 10 10 11 11 11 10 10 10 10 9 9 9 8 7 6 5 4 3 3 4 3 3 3 3 4 4 3 4 4 4 3 3 2 2 3 4 4 5 4 5 5 5 6 7 8 8 8 9 9 10 10 9 9 9 9 9 9 9 10 10
6 6 5 5 4 4 5 4 4 3 2 3 3 1 3 2 2 2 3 3 2 3 4 6 6 7 8 8 8 9 9 8 9 8 9 10 10 11 11 12 11 11 11 11 11 10 10 9 9 9 8 7 6 5 4 4 4 4 4 4 4 3 3 3 3 3 3 3 2 2 2 3 4 4 4 3 4 4 5 5 6 7 7 7 9 10 10 9 8 8 8 9 9 9 9 10 10
6 4 4 3 2 4 4 3 3 2 3 4 3 1 3 1 3 2 3 4 4 3 3 4 6 6 8 8 8 7 8 8 9 8 9 9 9 10 12 12 12 12 12 12 11 11 10 10 10 9 8 7 6 5 5 5 5 5 5 5 4 4 3 3 3 3 2 2 2 2 3 3 3 3 3 3 3 4 5 5 6 7 7 8 10 10 10 8 7 7 8 8 9 8 9 9 10
6 4 3 1 0 2 3 2 2 2 3 4 3 2 2 1 3 3 4 4 5 4 3 4 5 5 6 7 7 7 7 8 8 8 9 8 8 10 12 12 12 12 12 12 12 11 10 10 10 9 8 8 7 6 5 5 6 5 5 5 4 4 3 3 3 3 2 3 3 3 3 3 3 3 3 3 4 4 4 5 5 6 7 9 10 9 8 6 5 6 7 8 8 7 8 9 10
5 2 1 0 0 0 2 1 1 3 3 4 4 3 1 2 3 4 5 5 5 5 5 6 5 5 5 5 6 7 7 7 7 8 9 9 9 11 11 12 12 11 12 12 12 12 11 10 11 10 9 9 8 7 6 6 6 6 6 5 5 4 4 3 3 3 3 4 4 3 3 3 3 4 4 3 4 4 4 4 5 6 8 9 9 8 7 5 5 6 6 7 7 7 7 8 10
4 2 3 2 0 1 1 1 3 3 1 3 4 3 1 3 4 5 4 5 6 6 7 8 7 7 6 5 5 6 6 7 7 8 8 9 10 11 11 11 11 11 12 12 11 12 12 11 11 11 10 9 9 8 7 6 6 6 6 6 6 5 5 4 4 4 4 5 4 4 4 4 4 4 4 4 4 4 4 4 5 6 7 8 7 6 6 5 5 6 6 7 7 6 7 8 9
4 4 3 2 2 3 2 1 1 3 1 2 2 2 2 4 5 6 7 7 7 8 8 9 8 8 6 5 5 6 6 6 6 7 8 9 10 10 10 11 11 11 12 12 12 12 12 11 11 11 10 9 9 9 7 7 6 6 7 7 7 6 6 6 5 5 5 5 5 5 5 5 5 5 5 4 4 4 4 4 5 6 7 7 6 5 5 4 5 5 6 6 6 7 7 7 8
2 2 3 3 1 3 3 1 2 2 1 3 1 0 2 3 4 6 8 8 8 9 9 8 8 7 7 5 5 6 6 6 6 7 7 8 9 10 10 10 11 12 11 12 13 12 12 11 11 12 11 11 10 9 8 7 7 7 7 7 7 7 7 6 6 5 5 5 6 6 6 6 6 5 5 5 5 5 4 4 5 6 6 6 6 5 5 4 5 5 5 6 6 7 7 7 8
4 2 2 2 3 3 3 2 2 1 2 3 2 2 1 1 3 6 8 8 8 9 8 8 8 8 7 6 6 7 6 6 6 7 7 7 9 10 11 11 11 12 11 11 12 12 12 12 12 12 11 11 10 10 9 8 7 7 6 7 8 7 7 7 6 6 6 6 7 7 7 7 6 6 6 5 5 5 5 5 5 5 6 6 5 5 5 4 4 4 5 5 6 7 8 8 8
4 3 3 3 3 2 0 1 3 2 2 2 1 2 3 3 4 5 6 7 8 8 8 7 8 8 6 6 6 7 7 7 6 7 7 8 9 10 11 11 11 12 11 11 12 12 12 12 12 12 11 11 11 10 10 9 8 7 7 7 7 7 7 7 7 7 7 7 7 7 7 7 7 7 6 6 6 6 5 5 5 5 6 6 5 4 4 4 4 4 4 5 6 7 7 7 8
6 6 5 4 2 1 2 1 2 3 1 2 2 2 5 5 3 3 6 6 7 7 7 7 6 7 6 4 5 5 6 7 6 6 7 8 8 10 11 10 11 11 11 11 11 12 12 12 12 12 12 12 12 12 11 10 9 8 8 8 8 8 8 8 8 8 8 8 7 7 7 6 7 7 7 7 7 6 6 5 5 5 5 5 4 4 4 4 3 3 3 4 6 6 7 7 8
6 6 5 5 4 3 3 3 2 1 2 2 2 1 5 4 2 3 5 5 6 6 6 6 6 6 5 4 4 4 5 5 5 5 6 7 8 9 10 11 11 11 11 12 11 11 12 12 12 12 12 12 12 12 12 11 10 9 9 9 8 8 9 9 9 9 9 9 8 8 8 8 8 8 8 8 7 7 6 6 6 5 5 5 4 3 3 4 3 3 2 3 4 5 6 7 8
Wind_Direction
158 166 167 188 207 228 226 239 255 202 246 254 239 14 83 46 343 290 323 340 303 14 352 308 305 292 285 289 305 329 328 338 332 231 96 93 111 97 86 88 90 91 86 85 84 72 65 76 90 95 90 83 77 73 56 51 56 63 66 63 61 59 54 52 51 52 54 54 58 60 63 59 52 45 40 38 34 31 29 28 28 25 20 16 8 0 356 352 343 335 333 335 341 341 341 339 338
167 173 179 206 218 239 241 242 270 234 242 259 90 33 56 107 291 333 350 349 345 5 340 296 303 308 310 294 286 294 285 17 34 65 77 120 126 104 93 96 100 96 86 83 79 82 85 85 91 94 91 82 74 71 66 67 71 73 69 62 59 57 54 51 50 51 52 54 57 58 62 57 51 44 35 30 23 22 22 23 21 16 13 5 359 357 354 349 345 343 339 338 342 342 343 341 342
173 184 201 215 221 237 263 240 269 290 268 289 62 63 39 309 359 21 14 4 1 341 309 293 330 10 320 257 244 290 313 24 44 75 104 152 140 112 99 98 103 97 90 88 84 94 97 88 92 94 85 74 81 88 84 82 79 73 63 57 53 50 49 45 46 45 43 48 56 60 59 45 29 21 18 18 13 8 5 11 9 3 359 348 344 347 350 353 358 4 1 353 347 344 345 342 344
175 210 232 237 232 225 256 250 283 297 289 328 9 68 24 354 29 53 51 25 10 335 333 263 102 27 317 322 72 313 22 40 21 70 123 142 129 116 105 107 109 99 94 97 102 102 96 94 100 93 84 86 94 94 92 91 80 69 58 51 46 44 40 36 39 31 34 47 50 46 39 17 359 347 341 337 335 342 339 344 345 344 342 334 333 340 350 359 5 7 3 352 346 340 339 340 340
185 229 251 261 266 259 276 267 268 279 342 347 336 70 42 22 58 102 83 45 32 37 38 223 97 66 277 10 17 309 54 76 103 98 115 117 119 118 111 117 117 110 105 107 109 103 98 102 105 95 94 97 93 90 92 89 75 65 51 46 43 38 35 34 33 23 40 61 34 21 22 9 360 352 346 342 329 324 328 336 336 338 341 343 347 356 3 6 5 1 356 347 343 337 333 335 335
213 218 225 249 277 315 268 255 271 312 24 341 342 64 57 46 83 126 107 69 54 61 45 359 72 133 155 75 36 22 29 53 108 74 104 124 144 144 127 123 126 121 114 114 109 102 102 105 105 102 100 94 89 88 85 78 70 62 43 42 41 32 33 39 34 33 49 46 19 14 15 6 5 12 13 15 17 12 14 353 355 8 14 22 20 15 9 4 359 354 351 346 343 339 337 337 337
245 228 208 231 228 247 263 277 307 354 28 336 2 49 60 73 107 140 139 135 97 98 66 58 164 157 116 102 71 44 24 24 92 78 99 123 136 135 132 130 129 125 121 122 114 106 105 109 109 107 101 93 89 82 79 74 67 57 34 38 42 30 31 37 32 34 39 27 23 18 12 13 15 28 33 35 41 45 50 37 36 41 33 29 18 8 3 357 353 350 350 347 346 344 343 341 339
251 259 253 261 242 228 275 293 325 13 54 33 36 39 58 89 139 151 138 52 90 103 107 126 218 148 97 109 93 72 62 63 102 110 111 122 121 119 129 137 130 129 129 127 122 112 108 113 115 111 102 93 86 78 77 68 60 45 24 38 43 30 31 31 24 26 32 29 33 31 22 25 26 32 37 41 42 41 42 39 37 33 23 14 5 357 355 351 348 350 350 348 347 344 342 340 339
234 258 267 272 274 259 270 277 41 51 76 87 67 68 82 107 145 141 120 89 87 93 108 125 289 62 97 97 95 104 109 104 112 117 123 128 129 125 130 141 135 136 135 131 127 114 106 113 119 114 98 88 83 79 73 58 50 26 22 51 45 30 33 30 25 27 32 29 35 39 29 29 35 33 35 38 33 30 28 25 19 13 9 2 357 352 349 347 346 350 349 347 345 341 342 339 337
223 234 252 255 263 258 260 295 72 77 82 76 81 99 109 126 138 144 135 107 107 107 108 130 120 111 107 102 109 126 121 130 133 127 129 127 138 141 138 142 137 137 132 125 125 113 108 112 120 111 92 86 79 60 53 30 15 17 38 58 40 31 33 32 31 35 32 29 38 42 35 37 41 33 30 27 21 19 16 12 8 5 1 357 354 352 349 348 349 351 348 347 345 342 344 339 336
224 197 245 261 258 273 304 1 41 78 95 104 105 105 118 136 141 145 126 106 114 118 127 180 133 121 119 110 106 118 130 146 143 128 125 123 134 139 136 134 128 128 121 121 125 125 123 119 131 124 105 92 71 14 348 359 16 46 66 54 39 32 30 38 38 39 37 35 46 49 50 48 39 29 21 15 12 13 11 10 10 8 5 4 2 0 359 356 354 351 347 346 344 341 342 341 338
254 203 241 272 286 320 340 346 23 75 120 139 126 122 131 143 149 147 133 120 137 132 134 183 135 132 131 116 115 138 154 155 140 127 126 127 129 131 127 123 122 119 117 125 128 133 138 131 136 147 161 92 49 20 43 66 74 88 77 50 43 39 36 50 47 45 45 48 60 66 62 51 37 23 5 5 16 17 15 14 16 16 13 13 10 9 6 360 356 350 345 342 338 336 335 336 334
267 290 274 284 315 325 323 330 25 125 150 128 123 129 137 155 149 135 132 129 143 133 115 114 128 153 125 111 127 147 154 150 141 133 132 134 131 129 122 119 121 119 123 127 118 130 144 130 119 133 160 83 43 73 76 72 90 98 76 54 50 47 47 55 56 58 63 73 78 76 66 46 20 356 343 1 24 26 25 22 20 21 18 17 14 10 6 358 354 346 341 337 330 327 325 326 325
266 299 291 294 313 303 301 313 358 239 133 112 123 133 145 156 132 137 152 132 116 96 94 105 138 155 127 126 142 148 148 149 147 140 137 137 135 132 124 124 125 125 128 118 101 109 145 136 119 120 126 93 93 101 78 67 82 89 76 65 55 49 48 60 69 74 84 89 85 74 50 21 359 352 356 24 38 32 29 25 22 23 19 16 14 10 6 2 356 346 336 329 321 316 317 319 318
276 292 286 286 289 270 291 339 333 262 119 122 136 138 141 129 140 169 169 120 98 85 103 132 37 26 129 144 139 135 143 151 152 145 145 146 144 139 133 134 133 134 125 114 96 73 148 154 140 125 108 112 111 95 66 62 75 86 87 76 61 47 43 63 82 94 100 91 80 52 29 16 10 19 27 38 42 36 32 24 22 24 19 18 18 15 9 5 359 347 332 322 316 313 313 313 315
274 283 272 274 285 317 45 31 284 228 122 127 139 146 143 135 172 164 69 112 114 117 133 115 74 2 79 87 102 122 141 150 152 151 154 155 152 149 147 149 145 140 130 121 92 57 75 133 151 119 110 121 106 83 61 62 79 93 92 81 63 42 37 62 94 107 108 90 65 33 29 30 27 32 31 33 38 36 32 26 26 26 25 24 22 17 8 5 359 348 340 332 326 321 320 311 310
239 263 268 272 295 16 31 28 8 141 130 128 142 162 154 143 167 131 124 166 124 124 104 80 68 35 66 77 94 123 144 150 156 162 166 169 171 170 167 168 161 150 145 134 93 62 82 106 111 111 117 122 104 80 65 70 91 94 86 81 53 36 35 58 89 104 107 85 52 31 29 30 26 30 24 23 31 32 31 31 33 37 40 36 30 27 20 16 10 6 358 351 347 346 345 322 301
235 263 268 296 8 38 22 31 57 124 138 133 150 168 161 144 147 146 159 141 117 118 104 95 90 73 75 83 98 135 159 166 173 181 184 192 195 185 178 178 175 156 153 147 104 65 75 106 103 118 126 124 108 79 66 82 103 85 73 71 46 38 38 53 83 102 100 63 32 26 26 23 27 34 26 24 34 38 38 39 42 43 45 38 34 28 21 19 15 12 6 4 5 1 356 338 316
263 289 272 12 41 55 35 50 68 110 130 134 155 166 169 142 139 165 174 133 133 129 117 132 121 108 108 109 122 151 180 188 189 202 206 213 212 199 195 183 178 172 168 141 102 67 54 107 109 125 133 127 115 77 65 95 108 84 71 66 47 40 37 47 76 88 62 30 16 15 21 21 28 34 26 28 41 50 41 41 38 33 31 26 20 5 3 8 5 1 359 2 3 354 345 338 335
275 288 293 64 68 78 64 65 76 97 127 140 150 159 167 135 136 175 173 140 152 131 125 158 144 136 136 128 135 152 185 198 201 216 222 223 217 206 206 196 193 182 162 42 89 66 44 102 117 130 136 132 120 76 63 94 101 87 79 61 41 32 33 44 63 74 46 18 7 8 19 18 22 29 21 24 33 37 31 29 25 21 17 14 8 353 348 356 355 348 348 352 350 342 338 334 333
308 312 23 77 99 93 79 77 97 114 129 137 140 155 151 130 144 157 169 164 149 124 121 153 141 140 139 133 135 136 153 177 198 216 223 220 213 212 210 202 202 160 167 309 93 65 52 119 123 131 135 135 127 77 55 84 101 102 89 57 38 31 31 42 61 75 46 13 5 7 18 15 19 30 26 26 30 28 21 18 18 15 10 5 2 358 355 353 352 347 343 345 342 337 334 330 326
77 62 58 75 92 91 87 90 105 118 126 131 137 143 129 132 143 119 219 312 76 96 108 121 131 136 138 135 137 132 125 131 161 188 205 208 205 211 213 208 199 195 233 185 69 46 64 122 131 137 134 143 136 57 42 96 123 116 93 55 34 34 35 46 59 61 40 19 13 12 13 15 20 30 31 28 28 26 20 14 14 11 5 4 2 357 358 355 352 349 345 343 340 335 330 327 322
104 91 82 75 80 93 100 104 114 127 128 127 126 121 128 140 122 101 343 28 63 80 101 130 133 134 138 138 145 142 127 120 127 145 171 187 200 208 208 211 205 208 224 71 52 27 72 115 144 156 149 160 161 159 174 133 137 114 98 69 30 28 33 50 54 49 42 29 22 18 9 13 20 27 27 25 25 22 19 14 12 10 5 6 3 358 358 356 353 349 345 342 336 333 330 326 324
99 99 94 84 85 97 104 111 123 129 117 115 123 130 139 133 118 137 83 74 91 102 115 136 134 139 149 151 155 148 136 132 123 123 137 155 185 200 204 208 205 214 218 76 63 52 109 139 155 170 169 179 183 186 188 162 151 123 111 90 40 24 28 51 56 46 43 37 30 23 16 16 21 25 19 18 21 18 16 14 12 11 9 7 2 0 358 355 352 348 343 341 337 333 328 325 325
95 104 103 99 97 101 108 115 123 120 114 124 138 132 116 93 125 143 107 102 117 123 137 145 145 157 169 168 163 160 159 156 144 142 152 137 146 176 193 199 200 213 189 139 112 96 150 159 168 178 176 185 184 194 204 187 168 153 134 90 45 22 42 61 63 45 40 40 34 28 27 23 21 22 16 14 18 17 16 14 14 12 10 8 1 359 357 352 349 345 343 340 338 334 328 327 324
101 112 114 112 109 111 118 122 126 125 128 146 140 125 115 121 157 137 114 122 127 137 154 156 165 174 182 180 174 185 181 175 171 165 173 162 161 178 185 195 201 197 177 171 192 159 157 165 174 175 175 183 190 215 217 196 197 183 157 109 46 28 64 85 74 49 41 44 39 33 32 28 23 22 17 16 18 18 19 17 17 13 9 7 1 357 356 351 346 343 343 339 338 334 329 329 324
113 116 114 115 116 119 126 127 134 137 133 159 147 130 132 152 209 147 128 145 146 155 161 166 181 179 184 190 181 195 197 189 184 179 187 184 187 191 184 194 200 187 179 190 200 167 165 176 175 173 191 208 217 229 225 213 214 189 162 135 58 38 74 116 77 54 47 48 42 36 33 29 28 26 20 19 20 20 20 18 17 13 9 7 2 356 354 351 345 344 344 340 338 334 329 330 328
125 124 118 121 124 124 135 134 143 156 140 173 186 142 147 169 215 121 135 158 167 170 166 177 196 186 184 193 192 199 202 198 193 197 205 201 197 190 186 193 196 193 191 194 193 171 177 184 177 179 207 220 226 229 221 215 203 179 163 133 59 48 89 107 67 59 53 52 44 36 33 30 28 27 22 18 19 20 18 15 13 11 6 3 359 353 351 350 346 344 344 340 339 335 330 332 331
134 140 127 129 137 132 145 142 149 182 146 162 214 164 162 170 149 118 142 163 176 182 177 185 201 198 190 193 201 203 200 201 204 211 215 213 204 188 197 196 196 203 194 187 185 184 188 187 183 176 175 182 207 219 211 202 184 171 156 116 62 57 95 82 63 57 52 54 45 36 31 29 26 25 22 18 16 16 15 11 8 7 4 358 356 352 350 351 349 347 344 342 341 338 333 336 336
142 156 136 140 149 137 149 150 160 180 137 152 203 163 141 141 135 136 156 169 181 192 188 193 200 204 203 199 207 204 202 211 216 222 219 216 210 201 208 199 203 214 194 181 185 194 192 187 186 175 171 166 166 191 189 179 166 163 151 111 69 53 81 80 63 54 59 55 42 36 31 27 25 22 19 17 14 12 10 9 6 4 1 357 355 354 352 352 351 350 347 345 343 339 335 338 339
153 156 164 172 153 131 151 164 176 169 132 167 208 121 112 124 142 155 168 175 188 200 195 199 201 205 209 204 214 209 200 214 222 228 224 220 214 206 209 200 205 215 203 188 186 197 193 186 186 180 180 175 155 162 162 162 159 156 146 111 56 31 50 82 56 37 59 54 38 36 30 27 27 21 17 14 11 10 8 7 7 4 359 356 356 355 353 354 352 351 349 347 345 341 337 339 340
170 168 167 173 134 132 155 170 190 177 140 184 224 345 109 122 142 159 174 180 194 208 201 203 205 209 215 208 217 216 203 211 220 225 220 216 213 205 203 200 204 207 202 195 189 198 195 189 192 192 188 180 170 163 160 164 166 170 151 105 25 17 350 56 51 29 39 40 32 31 27 25 25 20 16 13 8 8 8 6 6 4 359 358 358 355 354 355 353 351 349 347 346 342 339 339 341
190 204 138 132 133 135 148 164 188 195 159 185 225 279 105 116 138 160 176 186 198 212 207 207 210 211 216 215 217 218 215 211 216 220 209 206 206 198 194 194 198 198 195 195 195 201 195 192 196 201 198 195 195 188 189 185 187 200 198 226 334 5 341 350 28 25 32 27 23 23 21 20 19 17 15 13 7 4 6 5 4 2 360 360 358 356 356 355 353 351 348 348 346 343 343 341 341
183 190 131 127 131 136 143 154 175 190 192 186 202 249 92 116 140 162 180 194 203 214 211 206 210 211 214 217 214 215 224 219 216 212 199 199 194 187 187 186 187 188 190 194 201 204 194 191 193 200 204 205 209 212 214 210 207 215 223 243 281 334 333 340 341 9 29 20 17 12 10 11 10 12 10 11 8 2 1 1 360 358 358 358 357 357 355 354 355 352 348 350 347 343 344 343 343
158 151 139 138 144 150 135 134 158 181 198 194 183 209 162 139 151 167 182 197 207 215 215 208 208 209 209 215 217 216 221 217 206 187 187 190 185 181 181 180 180 182 185 189 194 194 187 186 190 197 205 212 219 224 225 219 214 219 229 238 252 278 310 333 312 346 12 10 13 3 358 359 359 5 5 7 5 360 358 358 357 355 354 356 357 355 353 352 354 351 347 348 347 345 345 344 345
124 150 147 137 140 130 114 120 145 181 197 195 188 188 160 152 155 166 181 194 209 216 216 217 214 211 208 210 211 209 215 209 170 166 177 183 182 180 179 177 177 178 180 182 181 181 182 183 189 198 208 218 224 225 226 223 217 220 229 237 246 250 270 308 298 308 326 360 9 358 356 354 353 360 2 5 5 1 358 356 357 354 351 355 356 353 352 351 350 349 348 345 345 347 345 346 348
124 190 163 147 142 125 124 127 144 190 215 175 171 171 148 146 144 153 171 184 203 214 211 214 211 207 207 205 202 195 203 192 152 163 175 179 179 176 179 178 175 175 178 180 178 180 184 185 187 193 203 215 225 229 230 229 223 222 229 238 243 234 244 284 277 267 308 360 3 354 357 356 355 358 359 1 2 3 360 356 356 353 351 355 354 350 351 352 348 349 350 346 345 347 346 348 351
204 209 171 177 168 124 127 132 139 191 236 152 153 186 166 160 152 152 168 181 192 200 199 201 200 198 200 202 203 193 185 175 167 172 174 178 179 176 179 180 177 178 180 183 184 185 187 190 193 196 203 213 223 234 236 233 233 235 238 243 250 240 244 291 313 300 315 341 346 348 351 353 356 355 357 357 356 1 0 356 354 351 351 352 351 350 351 353 351 351 349 348 347 346 346 348 352
211 204 182 178 154 127 141 159 153 182 233 141 154 211 177 168 175 166 178 188 185 188 191 192 191 194 198 196 196 192 189 187 183 182 176 178 181 179 180 182 182 182 181 185 187 188 190 194 200 202 210 222 227 232 229 228 230 235 244 252 263 268 274 300 313 309 303 317 327 336 339 343 349 349 352 352 351 355 354 352 351 350 349 349 349 350 352 352 353 352 349 349 348 345 347 349 353
208 205 202 143 141 172 165 162 173 187 231 232 190 236 201 167 181 178 187 195 185 188 197 197 195 195 199 195 187 186 193 191 185 182 175 176 181 183 185 183 182 183 183 184 183 186 192 196 200 203 214 231 230 221 219 223 224 223 235 247 254 269 284 293 295 283 276 296 309 321 329 332 336 339 344 345 347 349 347 347 347 346 346 347 348 348 350 352 352 353 351 349 349 347 347 349 352
184 204 236 103 136 207 45 129 170 191 215 240 257 258 210 166 183 183 181 195 197 195 202 206 204 198 196 198 195 190 194 193 187 182 174 176 182 186 188 184 183 186 186 183 179 180 187 191 195 199 214 235 222 209 209 215 218 216 222 230 235 249 267 274 280 280 268 269 285 310 323 324 327 331 335 337 340 342 343 344 343 342 343 345 347 345 348 350 349 353 352 348 350 350 347 346 351
166 185 219 222 156 189 128 145 182 199 194 201 185 354 172 162 184 182 168 192 205 200 207 212 207 200 198 201 201 197 197 192 188 183 176 179 184 184 185 185 187 190 187 181 176 175 177 179 186 192 205 223 208 201 209 216 219 222 221 226 233 244 262 270 286 298 286 274 285 310 317 316 319 324 328 332 336 337 338 340 340 340 339 341 343 341 344 347 345 350 351 347 349 351 348 345 350
152 135 195 215 211 202 175 177 210 231 112 137 156 176 191 154 162 163 170 204 209 201 211 218 213 204 201 203 199 192 191 185 181 181 179 179 182 183 185 188 192 192 183 175 171 172 174 176 180 188 197 202 200 198 210 229 234 236 235 243 255 263 273 285 301 297 283 282 287 302 314 316 317 321 324 328 333 333 333 336 338 339 338 339 339 338 340 342 342 347 349 347 346 348 350 347 349
90 96 187 197 198 205 194 205 236 313 61 153 196 255 282 130 120 129 184 218 214 205 212 216 217 211 205 205 198 186 182 178 174 175 178 178 181 186 187 188 191 187 177 171 171 173 177 180 181 185 191 188 191 196 209 228 241 251 250 254 261 266 275 285 293 286 277 279 283 296 311 315 320 325 324 326 330 329 330 333 336 339 339 337 336 335 336 338 339 343 345 346 346 348 351 349 348
83 109 183 184 195 203 195 219 227 221 238 186 158 243 272 112 110 135 184 216 209 203 208 203 204 206 205 204 197 187 177 173 173 170 173 177 181 186 186 183 182 177 174 174 173 175 177 182 184 185 190 187 183 190 203 217 234 253 257 261 266 269 277 284 288 287 282 280 284 297 308 313 320 323 323 325 325 326 331 333 334 337 338 337 335 333 334 334 335 339 341 344 347 348 350 349 349
98 140 177 165 192 198 199 229 207 197 245 161 116 223 282 92 119 149 175 204 188 178 190 177 169 186 198 196 191 186 174 172 175 166 166 172 175 180 178 174 172 171 174 175 172 174 176 181 186 189 192 188 184 189 198 208 219 236 249 259 268 272 277 281 287 286 282 281 284 293 304 313 319 319 321 322 322 328 335 335 335 336 338 338 335 331 330 330 331 336 339 341 344 345 349 349 349
138 166 177 163 173 187 197 223 226 216 222 112 110 233 295 37 124 137 133 127 137 161 166 153 147 159 172 179 182 182 177 175 174 164 160 160 162 167 169 169 169 168 171 173 173 176 180 182 186 191 193 190 189 193 197 201 206 219 236 248 259 271 275 274 281 286 287 285 280 282 294 305 310 313 316 317 322 334 337 337 337 337 339 339 336 331 328 326 328 333 336 340 342 343 347 346 347
183 188 181 165 159 178 189 188 210 224 160 119 117 165 266 267 93 89 103 121 174 193 157 152 154 144 149 168 177 178 178 175 172 167 158 154 156 163 170 172 171 170 172 177 180 181 184 185 186 190 194 193 194 197 198 198 199 211 223 232 242 256 268 270 276 287 295 295 288 285 286 293 302 310 313 313 325 337 336 335 338 337 338 337 333 330 326 323 324 330 336 340 341 342 344 344 346
210 214 195 189 159 171 175 160 178 174 110 116 120 183 248 292 70 91 129 145 166 178 156 149 145 133 142 160 167 169 175 177 174 167 158 160 166 169 174 176 175 176 179 181 183 184 186 186 186 191 195 194 196 198 201 201 201 208 217 224 231 236 249 263 270 276 280 281 282 280 282 294 303 305 307 312 324 334 333 332 336 335 333 332 329 327 324 323 322 327 334 339 341 341 343 343 343
213 221 200 174 128 154 123 113 149 117 103 116 131 217 238 112 89 115 140 135 131 148 159 143 133 130 139 152 159 162 170 177 172 165 165 170 173 174 176 178 179 181 182 182 182 185 186 186 187 193 195 193 195 198 202 205 207 213 219 224 229 231 234 241 252 260 256 250 254 260 273 289 295 294 296 306 317 324 325 328 329 329 330 329 329 327 324 322 320 324 331 337 340 340 339 340 339
196 233 269 215 281 38 77 76 88 96 119 132 147 214 251 96 104 112 123 125 135 156 154 145 147 141 140 148 155 156 161 170 170 169 173 172 170 173 174 177 181 181 180 181 183 185 186 187 189 193 193 192 194 198 203 208 210 213 218 221 227 232 234 237 243 251 248 241 239 243 256 267 278 288 293 295 303 310 315 322 322 325 330 330 330 330 325 322 321 323 329 333 336 338 336 335 336
166 218 249 224 336 330 46 17 359 10 144 142 159 223 9 88 127 140 148 151 158 164 155 160 165 153 153 158 157 162 166 170 174 174 172 166 166 170 172 176 180 176 176 180 182 186 188 188 189 192 194 193 193 198 203 208 210 212 214 219 224 226 228 236 243 247 242 235 235 242 247 253 265 278 286 286 290 299 308 316 319 323 332 332 331 329 324 322 320 321 326 329 332 335 331 331 333
156 201 217 76 25 291 276 139 259 291 280 113 167 227 146 146 159 158 175 180 170 171 171 173 167 157 165 169 167 178 176 173 175 171 168 165 166 170 173 176 178 176 178 181 184 187 188 189 189 190 193 194 195 198 203 207 210 215 218 219 222 223 222 228 237 244 241 233 236 243 245 250 257 265 276 280 282 288 295 307 316 323 331 334 331 324 319 317 315 318 324 327 331 331 325 328 331
198 202 145 111 188 251 268 248 210 216 106 98 121 256 134 159 143 148 176 183 174 178 180 174 167 167 177 178 177 179 170 169 169 164 164 165 167 171 174 178 180 179 182 183 184 185 187 190 190 190 192 195 197 199 202 207 211 217 222 221 222 224 224 227 232 240 240 236 237 239 240 246 250 256 265 270 274 278 283 295 309 322 331 333 329 322 316 312 312 318 322 325 331 328 322 327 331
262 329 113 193 248 205 191 250 282 44 85 94 119 127 117 79 104 144 172 176 175 179 179 176 174 178 186 181 176 174 164 164 167 166 166 167 172 174 174 179 179 177 181 183 182 184 187 190 192 193 194 196 198 199 201 206 209 213 220 220 220 223 224 227 231 236 240 242 243 242 241 243 247 252 255 259 266 271 276 287 302 318 328 330 327 321 315 313 313 319 324 328 333 330 325 328 333
235 257 206 230 290 323 295 299 315 332 72 67 80 131 117 75 81 131 150 159 172 175 177 185 182 179 187 184 175 176 173 174 178 176 171 169 174 176 175 179 180 177 180 181 181 186 189 190 194 196 195 196 198 200 202 206 208 211 216 216 218 221 222 225 228 233 239 244 248 248 245 242 243 247 249 251 258 263 268 278 294 310 321 328 325 319 315 310 307 316 328 333 334 334 334 335 338
197 216 209 206 217 286 290 261 287 308 8 48 24 83 90 78 84 122 128 145 166 169 174 187 185 178 181 180 176 176 173 175 179 177 171 166 167 172 173 178 181 177 178 181 184 189 191 193 198 198 197 199 200 201 204 207 209 211 214 217 219 220 222 224 226 231 237 243 246 245 244 242 243 245 246 248 253 254 257 266 282 296 312 322 319 310 305 298 292 301 323 336 339 340 346 347 345
207 210 209 213 207 219 234 198 184 283 333 1 346 48 86 92 126 125 121 143 160 166 170 177 183 181 177 174 169 164 158 158 163 165 164 158 161 171 174 176 180 178 179 184 186 190 193 196 201 200 201 204 205 203 205 207 208 211 215 218 220 221 222 224 227 231 236 240 240 240 241 242 244 245 241 245 250 247 247 257 269 282 298 310 310 297 284 277 279 291 311 334 341 345 352 354 353